Whiteman AFB, MO

9:37 AM CDT on June 25, 2017 (GMT -0500)
Whiteman Air Force Base

Weather History for KSZL - October, 2011

Change the Weather History Date:

Friday, October 28, 2011

  Actual Average Record
Temperature  
Mean Temperature 45 °F -  
Max Temperature 61 °F 61 °F 81 °F (2016)
Min Temperature 29 °F 44 °F 25 °F (2008)
Degree Days  
Heating Degree Days 20    
Moisture  
Dew Point 27 °F    
Average Humidity 55    
Maximum Humidity 97    
Minimum Humidity 22    
Precipitation  
Precipitation 0.00 in - - ()
Sea Level Pressure  
Sea Level Pressure 30.20 in    
Wind  
Wind Speed 4 mph (WNW)    
Max Wind Speed 15 mph    
Max Gust Speed 20 mph    
Visibility 10 miles    
Events      
Averages and records for this station are not official NWS values.
T = Trace of Precipitation, MM = Missing Value Source: NWS Daily Summary

Daily Weather History Graph

Daily Weather History Graph

Search for Another Location

Airport or City:

Trip Planner

Search our weather history database for the weather conditions in past years. The results will help you decide how hot, cold, wet, or windy it might be!

Date:

Astronomy

Oct. 28, 2011 Rise Set
Actual Time 7:36 AM CDT 6:18 PM CDT
Civil Twilight 7:09 AM CDT 6:46 PM CDT
Nautical Twilight 6:37 AM CDT 7:17 PM CDT
Astronomical Twilight 6:07 AM CDT 7:48 PM CDT
Moon 9:51 AM CDT (10/28) 7:44 PM CDT (10/28)
Length of Visible Light 11h 36m
Length of Day
10h 42m
Waxing Crescent, 5% of the Moon is Illuminated
Oct 28
Waxing Crescent
Nov 2
First Quarter
Nov 10
Full
Nov 18
Last Quarter
Nov 25
New

Hourly Weather History & Observations

Time (CDT) Temp. Windchill Dew Point Humidity Pressure Visibility Wind Dir Wind Speed Gust Speed Precip Events Conditions
12:55 AM 38.1 °F - 30.2 °F 73% 30.19 in 10.0 mi Calm Calm - N/A   Clear
1:55 AM 36.9 °F - 28.9 °F 73% 30.19 in 10.0 mi Calm Calm - N/A   Clear
2:55 AM 37.6 °F - 29.7 °F 73% 30.19 in 10.0 mi Calm Calm - N/A   Clear
3:55 AM 33.6 °F - 29.3 °F 84% 30.20 in 10.0 mi Calm Calm - N/A   Clear
4:55 AM 33.1 °F - 29.1 °F 85% 30.21 in 10.0 mi Calm Calm - N/A   Mostly Cloudy
5:55 AM 29.7 °F - 28.9 °F 97% 30.22 in 10.0 mi Calm Calm - N/A   Clear
6:55 AM 31.6 °F - 28.2 °F 87% 30.22 in 10.0 mi Calm Calm - N/A   Clear
7:55 AM 31.5 °F - 28.2 °F 88% 30.23 in 10.0 mi Calm Calm - N/A   Clear
8:55 AM 34.2 °F - 32.5 °F 94% 30.25 in 10.0 mi Calm Calm - N/A   Clear
9:55 AM 43.3 °F - 35.1 °F 73% 30.24 in 10.0 mi Calm Calm - N/A   Clear
10:55 AM 52.2 °F - 30.7 °F 44% 30.24 in 10.0 mi WNW 4.6 mph - N/A   Clear
11:55 AM 56.5 °F - 27.0 °F 32% 30.24 in 10.0 mi West 10.4 mph 19.6 mph N/A   Clear
12:55 PM 58.3 °F - 27.9 °F 31% 30.21 in 10.0 mi West 11.5 mph - N/A   Clear
1:55 PM 59.7 °F - 24.8 °F 26% 30.17 in 10.0 mi West 13.8 mph - N/A   Partly Cloudy
2:55 PM 61.0 °F - 24.8 °F 25% 30.14 in 10.0 mi West 12.7 mph 19.6 mph N/A   Clear
3:55 PM 61.5 °F - 24.1 °F 24% 30.13 in 10.0 mi West 15.0 mph 19.6 mph N/A   Clear
4:55 PM 61.3 °F - 24.6 °F 25% 30.12 in 10.0 mi West 10.4 mph - N/A   Clear
5:55 PM 59.2 °F - 20.1 °F 22% 30.12 in 10.0 mi NW 15.0 mph - N/A   Clear
6:55 PM 54.0 °F - 23.9 °F 31% 30.16 in 10.0 mi NW 8.1 mph - N/A   Clear
7:55 PM 49.6 °F - 25.7 °F 39% 30.19 in 10.0 mi WNW 8.1 mph - N/A   Clear
8:55 PM 48.0 °F - 25.3 °F 41% 30.20 in 10.0 mi NW 6.9 mph - N/A   Clear
9:55 PM 46.0 °F 43.1 °F 25.3 °F 44% 30.21 in 10.0 mi NW 5.8 mph - N/A   Clear
10:55 PM 43.5 °F 38.9 °F 24.4 °F 47% 30.22 in 10.0 mi NW 8.1 mph - N/A   Clear
11:55 PM 40.8 °F 37.8 °F 24.6 °F 53% 30.21 in 10.0 mi WNW 4.6 mph - N/A   Clear